Probability
0 0 0 0 0 0 0 0 0 0 0 0 0 0 0 0 0 0 0 1 1 1 0 1 2 3 3 3 2 2 2 3 2 1 2 2 3 2 1 1 1 1 0 0 0 0 0 0 0
0 0 0 0 0 0 0 0 0 0 0 0 0 0 0 0 0 0 0 0 0 0 0 0 1 3 3 3 2 1 2 2 1 0 1 1 2 1 0 0 0 0 0 0 0 0 0 0 0
0 0 0 0 0 0 0 0 0 0 0 0 0 0 0 0 0 0 0 0 1 1 1 0 1 2 2 2 1 0 1 1 1 0 0 0 0 0 0 0 0 0 0 0 0 0 0 0 0
1 0 0 0 0 0 0 0 0 0 0 0 0 0 0 1 1 0 0 1 2 2 1 0 0 1 1 1 0 1 1 1 2 2 1 1 0 0 0 0 0 0 0 0 0 0 0 0 0
2 1 2 1 0 0 0 0 0 0 0 0 0 0 0 1 1 2 2 2 3 2 1 0 0 0 0 0 1 2 2 2 3 3 3 2 0 0 0 0 0 0 1 1 1 1 1 0 0
2 3 3 2 0 0 0 0 0 0 0 0 0 0 0 0 2 3 3 3 3 2 1 0 0 0 0 0 2 3 3 3 4 4 3 3 2 1 1 0 0 1 2 3 3 3 2 0 0
3 4 4 2 0 0 0 0 0 0 0 0 0 0 0 0 2 3 3 3 3 2 1 0 0 0 0 1 3 4 4 4 4 4 3 4 3 3 2 1 1 2 3 4 5 4 2 1 1
3 4 4 2 0 0 0 0 0 0 0 0 0 0 0 2 4 5 4 3 3 2 1 1 0 0 0 1 3 4 4 4 4 3 3 3 3 3 2 2 2 3 3 4 4 3 2 3 3
2 3 3 2 1 1 0 0 0 0 0 0 0 0 2 5 7 7 5 3 3 2 1 0 0 0 0 0 1 2 3 3 2 2 2 1 1 1 1 1 1 2 2 2 2 1 2 4 5
4 4 3 1 1 1 0 0 1 1 2 2 1 1 3 6 8 8 6 4 3 2 1 1 1 0 0 0 0 1 1 1 1 1 1 0 0 0 1 1 1 1 1 1 1 0 1 2 3
6 5 4 2 1 0 0 0 1 2 3 3 2 1 3 6 7 7 6 4 3 3 2 2 1 0 0 0 0 0 0 0 0 0 0 0 1 1 2 2 2 1 1 1 0 0 0 1 1
6 5 4 2 0 0 0 0 1 2 3 3 2 2 3 5 6 5 5 4 3 3 1 1 1 0 0 0 0 0 0 0 0 0 0 0 0 1 2 3 3 3 2 2 1 0 0 0 1
4 3 2 1 0 0 0 0 0 1 3 3 2 2 3 5 6 5 4 3 3 3 1 0 0 0 0 0 0 0 0 0 0 0 0 0 0 0 2 3 3 3 3 3 2 1 0 0 1
1 1 1 0 0 0 0 0 0 1 2 3 2 2 3 4 6 5 4 4 3 3 2 1 0 0 0 0 0 0 0 0 0 0 0 0 0 0 2 3 3 3 3 3 2 1 0 0 0
0 0 0 0 0 0 0 0 0 0 1 2 2 1 3 5 6 7 6 5 4 3 3 2 1 0 0 0 0 0 0 0 0 0 0 0 0 0 1 2 3 3 3 3 2 1 0 0 0
0 0 0 0 0 0 0 0 0 0 0 1 1 1 3 5 8 8 8 6 5 3 3 3 2 1 0 0 0 0 0 0 0 0 0 0 0 0 0 1 2 3 3 3 2 1 0 0 0
0 0 0 0 0 0 0 0 0 0 0 0 1 2 3 5 8 9 9 8 6 4 3 4 2 1 0 0 0 0 0 0 0 0 0 0 0 0 0 0 1 1 2 1 1 0 0 0 0
0 0 0 0 0 0 0 0 0 0 0 0 2 3 3 4 6 8 9 9 8 5 4 3 1 0 0 0 0 0 0 0 0 0 0 0 0 0 0 0 0 0 0 0 0 0 0 0 0
0 0 0 0 0 0 0 0 0 0 0 0 1 2 2 3 4 5 7 8 8 7 5 3 1 0 0 0 0 0 0 0 0 0 0 0 0 1 1 0 0 0 0 0 0 0 0 0 0
0 0 0 0 0 0 0 0 0 0 0 0 0 0 1 2 3 4 6 7 7 8 6 4 1 0 0 0 0 0 0 0 0 0 0 0 1 2 1 0 0 0 0 0 1 1 1 1 1
0 0 0 0 0 0 0 0 0 0 0 0 1 1 1 2 3 4 5 6 7 7 6 4 3 1 1 1 1 1 0 0 0 0 0 0 1 2 2 1 1 0 0 0 2 3 3 2 2
0 0 0 0 0 0 0 0 0 0 0 1 3 3 2 3 3 5 6 6 6 5 4 4 4 3 3 4 4 3 2 1 1 1 0 0 1 2 2 2 1 0 0 0 2 3 3 3 3
1 1 0 0 0 0 0 0 0 0 0 1 3 3 3 3 4 6 8 8 7 5 5 5 5 4 5 7 8 8 6 4 3 2 1 0 0 1 2 1 1 0 1 1 2 3 3 4 4
0 0 0 0 0 0 0 0 0 0 0 1 2 3 4 4 5 5 6 7 7 6 6 6 6 5 6 8 9 10 8 6 5 3 2 1 1 2 2 2 1 1 3 3 3 3 5 6 6
0 0 0 0 0 0 0 0 0 0 0 0 2 4 5 5 5 5 4 5 6 6 6 6 6 5 5 6 7 8 8 7 5 3 3 2 2 2 2 3 3 3 5 5 4 4 6 6 5
0 0 0 0 0 0 0 0 0 0 0 2 3 5 7 6 6 6 5 5 7 7 7 7 6 4 4 5 6 6 6 5 3 2 1 2 2 2 1 2 3 4 6 6 5 5 5 4 3
0 0 0 0 0 0 0 0 0 0 1 4 6 7 8 8 6 5 6 7 8 9 9 9 7 5 5 6 6 6 5 4 2 1 0 1 1 1 0 1 3 5 6 6 5 4 4 4 4
0 0 0 0 0 0 0 0 1 1 2 5 7 9 9 8 5 3 5 6 8 8 9 9 7 5 5 5 6 5 4 3 2 1 1 0 0 0 0 2 4 7 7 5 3 3 4 4 5
0 0 0 0 0 0 0 1 2 2 2 5 9 10 9 6 3 2 3 5 7 7 6 6 5 4 4 4 3 3 3 2 2 2 1 0 0 1 1 3 5 6 6 4 2 2 4 5 6
0 0 0 0 0 0 0 1 2 3 3 6 9 10 7 4 1 1 3 5 7 7 5 4 4 3 3 2 1 1 2 2 2 2 1 0 1 2 3 4 5 5 4 3 2 2 4 7 7
Wind_Speed
5 4 2 1 2 2 2 3 1 1 2 2 3 4 4 3 2 2 0 5 5 5 4 7 8 8 9 12 11 10 10 10 10 10 10 10 10 9 9 8 8 8 8 7 7 6 7 7 7
4 4 1 1 3 2 3 2 1 1 3 3 4 4 4 3 2 3 2 3 5 5 4 5 8 8 9 10 10 10 10 9 9 9 9 9 9 8 8 8 7 7 7 6 6 6 6 6 6
5 3 1 2 1 2 2 1 1 2 2 1 3 3 3 2 2 3 3 6 5 4 3 4 9 9 9 9 9 9 9 9 9 8 8 8 8 8 7 7 7 6 6 6 5 5 5 5 4
3 1 1 2 2 3 3 2 2 2 2 3 3 3 2 1 3 4 7 8 6 3 3 4 9 9 8 8 8 9 8 8 8 8 7 7 7 7 6 6 6 5 5 5 5 5 5 5 4
1 2 2 2 3 2 1 2 2 2 1 3 3 3 2 3 5 8 8 7 6 3 2 3 8 9 9 8 8 8 8 8 8 7 6 6 6 6 6 5 5 5 5 5 5 5 4 4 4
2 2 2 2 3 3 1 1 3 3 2 3 3 3 1 2 5 7 7 6 5 4 2 2 7 8 8 8 9 8 8 7 7 6 6 5 5 5 4 4 4 5 5 5 5 5 4 5 5
2 2 0 2 2 2 0 2 3 2 2 2 3 4 1 2 4 6 6 5 4 3 2 1 2 4 7 8 8 8 7 7 6 5 5 5 4 4 3 3 3 3 4 4 5 5 5 5 5
2 2 1 1 1 2 0 2 1 2 1 2 4 5 3 4 6 6 6 5 4 3 2 2 2 2 2 3 6 7 7 6 5 5 4 4 3 2 2 2 3 3 3 3 4 5 5 5 5
2 2 1 3 2 3 1 1 1 2 4 2 2 3 4 10 9 7 5 3 3 3 1 2 1 1 1 2 3 4 5 5 4 3 3 2 0 0 1 2 3 3 3 4 4 4 4 4 4
3 1 4 4 4 3 2 2 3 3 3 2 4 5 9 11 9 8 6 6 5 4 3 2 2 2 1 1 2 1 1 1 1 1 1 1 1 1 1 3 3 4 3 3 3 4 3 2 1
3 4 4 3 4 3 1 1 2 5 3 4 6 8 11 10 8 7 6 5 5 4 3 3 2 2 2 1 1 1 1 1 1 1 1 1 1 1 1 1 2 2 2 1 2 2 1 0 1
3 5 4 4 2 1 2 2 2 4 5 5 8 11 12 11 9 8 7 6 4 3 4 3 3 2 2 1 1 1 1 0 0 0 0 0 0 1 1 1 1 1 1 1 1 1 1 1 1
3 4 3 3 3 2 2 2 2 2 2 7 9 10 10 10 9 7 6 5 4 4 4 3 3 3 2 2 1 1 1 1 1 0 0 1 0 0 1 1 1 1 1 0 1 1 1 1 1
2 3 3 3 2 1 3 1 2 2 5 8 9 9 9 9 9 6 5 5 6 5 5 4 4 4 3 2 2 1 1 1 1 1 1 1 1 1 1 1 1 1 1 0 0 1 1 1 1
1 2 5 2 0 0 3 2 2 3 7 8 7 7 7 7 6 7 7 7 7 6 5 5 5 4 4 3 2 1 1 1 1 1 1 1 1 1 1 0 1 1 1 0 0 0 0 1 1
2 3 3 4 0 1 4 3 2 4 8 7 6 6 6 5 6 6 6 5 6 5 5 5 5 5 4 3 2 1 1 1 1 1 1 1 2 2 1 1 1 1 0 0 0 0 1 1 1
3 1 3 4 1 1 2 4 2 4 7 6 6 5 5 5 5 5 5 6 6 6 6 5 4 5 4 4 2 2 1 1 1 1 1 1 1 1 1 1 1 0 0 0 0 0 0 0 1
3 2 3 4 2 1 1 4 2 3 6 6 5 5 5 6 6 5 5 5 5 5 5 5 4 4 4 3 2 1 1 0 0 0 1 1 1 1 1 1 1 0 0 0 0 0 0 0 1
3 3 4 5 2 1 2 3 2 3 4 4 4 5 5 6 4 3 4 5 5 5 4 4 5 4 4 2 2 2 1 1 1 1 1 1 1 1 1 1 0 0 0 1 1 0 0 1 0
4 3 4 4 1 2 1 3 2 3 5 6 6 6 6 4 2 3 4 4 6 6 5 4 5 4 4 3 2 2 2 1 1 1 0 0 1 1 1 1 1 0 0 0 0 1 1 0 1
4 5 4 3 2 3 1 5 2 1 2 1 3 4 5 6 6 5 5 5 5 6 6 6 5 4 4 3 2 2 2 1 1 1 1 1 0 1 1 1 1 1 1 1 1 1 2 1 0
4 5 5 3 1 1 1 3 6 2 2 3 3 3 5 5 6 5 5 5 6 6 5 5 5 4 4 4 3 4 3 2 2 1 1 1 1 0 0 1 1 1 1 1 2 1 1 2 1
5 2 2 2 3 1 1 1 7 1 3 5 6 5 5 6 7 7 6 6 5 5 5 5 5 4 4 3 4 4 2 2 1 0 0 1 1 0 0 0 0 0 1 1 1 1 1 2 2
4 5 5 5 4 1 2 3 7 3 5 4 4 5 6 6 6 6 5 5 5 5 5 5 5 4 4 5 4 4 3 2 2 1 0 1 1 1 1 0 0 0 1 1 2 2 2 2 2
4 5 3 4 3 4 2 2 8 5 4 4 5 5 6 6 6 6 6 6 6 6 6 5 6 5 4 4 4 4 3 3 3 2 2 1 0 1 1 1 1 1 1 1 1 1 1 1 2
4 8 7 5 5 4 1 4 7 3 2 2 3 4 4 5 5 6 6 6 6 6 6 6 6 5 4 4 4 3 3 2 2 2 2 2 2 2 2 1 1 1 1 1 1 0 1 1 1
5 4 5 6 2 1 4 5 7 1 1 1 2 4 5 5 5 5 4 5 5 5 5 5 5 4 4 4 4 3 3 3 2 2 1 1 1 1 1 1 1 1 1 1 0 0 1 0 1
4 7 5 6 5 3 4 4 5 3 4 2 3 5 5 4 4 4 4 4 4 4 4 4 4 4 4 3 3 3 3 2 2 2 1 1 1 1 1 1 1 1 1 1 0 0 1 0 1
3 3 4 5 5 6 4 7 5 7 6 5 5 5 5 5 4 4 4 3 3 4 4 4 4 3 3 3 3 2 2 2 2 2 2 2 2 2 1 1 1 1 1 1 0 1 1 1 1
4 6 7 5 4 4 4 7 4 4 4 4 4 3 3 4 4 4 3 3 3 4 4 4 4 4 3 3 3 3 2 2 2 2 2 1 1 1 1 1 1 1 1 1 1 2 2 1 2
Wind_Direction
180 158 148 155 45 36 310 291 252 17 39 44 78 84 97 91 133 165 110 130 126 135 144 147 144 137 128 131 134 134 131 132 133 131 131 134 137 140 141 142 144 144 144 147 152 157 155 159 163
154 157 162 60 66 19 302 289 59 104 154 133 82 75 73 63 62 108 117 134 126 131 129 140 145 141 139 138 138 136 135 137 137 134 134 135 137 140 144 144 145 145 147 152 163 167 165 168 172
167 188 121 60 81 199 259 279 123 90 129 110 77 64 85 101 128 150 153 132 118 122 126 152 144 142 141 141 142 142 142 142 140 137 137 137 139 143 147 146 148 153 157 165 171 176 174 176 177
162 116 55 52 292 243 224 234 149 127 53 59 95 70 61 70 149 141 130 127 120 115 124 156 145 144 144 146 145 147 148 147 142 140 142 144 144 146 149 151 157 165 174 178 180 182 182 182 185
99 81 41 355 293 280 236 187 158 125 82 69 92 91 45 25 97 115 125 128 130 126 135 161 149 150 152 154 151 149 151 150 145 146 149 150 149 154 157 162 173 182 189 190 191 193 190 190 193
68 63 48 328 313 320 331 129 110 92 90 92 100 101 44 73 109 124 124 122 128 134 140 156 157 155 155 156 155 156 154 151 149 154 161 161 157 157 162 175 187 197 202 199 200 205 205 204 207
103 85 350 297 317 326 219 106 115 112 97 141 128 107 74 114 126 123 117 114 113 115 114 110 133 150 157 157 156 158 154 152 155 163 166 166 166 169 176 185 199 211 216 212 216 220 218 215 215
145 95 347 305 285 286 190 89 107 135 142 129 122 139 186 174 133 113 103 103 106 104 100 97 96 101 124 148 159 158 153 156 159 169 176 172 174 182 203 208 228 237 234 233 236 235 230 228 227
120 63 290 244 215 254 218 101 119 124 114 120 127 159 165 135 129 119 112 111 131 148 136 127 128 114 117 142 162 153 154 157 161 174 176 165 57 346 267 259 260 266 266 252 250 248 247 244 245
121 146 245 230 205 214 237 178 163 124 121 116 90 87 118 134 143 148 155 165 177 185 179 166 164 152 142 159 127 118 139 135 125 85 68 54 39 318 295 291 286 283 275 270 262 261 265 270 293
171 212 251 261 234 211 213 179 149 139 185 193 164 147 143 148 156 166 174 179 188 187 186 178 178 170 163 155 131 113 99 87 62 64 57 57 26 333 336 337 321 320 313 319 321 327 318 302 264
201 248 247 269 244 195 191 158 140 180 215 174 153 150 153 161 172 179 181 187 179 178 199 187 172 170 179 170 160 149 146 148 182 273 319 111 38 348 331 335 323 333 331 335 337 334 323 313 300
218 272 278 259 280 238 152 172 172 231 157 126 131 144 161 173 183 187 182 178 173 188 198 195 180 178 176 171 197 178 183 193 214 226 240 180 174 265 300 311 322 317 327 314 316 319 316 307 293
247 271 299 299 271 214 143 157 141 227 135 134 146 162 172 181 184 180 180 182 185 194 197 192 189 183 172 183 193 193 186 192 196 224 232 199 189 206 231 284 317 310 295 248 259 284 286 294 286
337 344 337 324 318 177 110 22 222 186 139 147 164 174 180 186 182 188 189 187 190 191 191 190 190 177 178 192 194 185 182 174 192 223 230 210 194 198 194 205 294 299 305 320 64 323 341 321 318
21 33 337 299 327 84 104 261 257 157 150 164 177 182 184 187 190 196 188 184 185 177 177 188 188 171 173 179 175 166 171 173 198 211 214 215 203 187 174 178 275 293 314 128 169 24 8 346 328
19 354 287 300 264 95 120 253 255 161 167 178 186 189 189 192 199 196 185 179 177 172 171 174 173 164 170 169 158 152 153 164 187 187 198 224 213 183 170 197 264 289 106 233 246 94 144 310 317
235 250 279 282 287 64 219 261 267 166 180 190 193 195 197 203 210 197 182 172 164 163 167 169 162 157 153 143 129 119 122 143 134 201 217 211 205 183 174 187 246 174 88 348 332 82 68 269 307
190 209 263 271 267 180 231 259 254 172 178 195 200 203 210 217 206 178 172 164 154 156 164 172 165 163 155 152 159 164 197 200 201 228 233 224 200 180 165 206 158 122 177 240 232 160 78 15 38
204 228 257 290 331 155 241 282 255 190 197 203 201 205 210 206 185 174 173 172 168 169 170 173 175 172 175 174 159 159 159 182 201 265 316 265 207 197 180 172 190 197 213 279 237 148 150 263 98
227 207 221 231 358 44 55 324 299 242 218 203 205 204 204 194 190 185 183 185 176 178 179 181 184 181 172 160 126 103 81 54 31 348 316 307 252 202 187 179 186 197 195 231 241 196 184 212 230
254 223 196 186 118 308 97 282 292 260 265 234 223 203 201 190 179 183 188 185 189 191 181 182 175 176 172 158 154 154 159 178 213 220 259 307 312 255 195 182 190 209 211 231 249 220 203 188 226
219 148 122 121 131 54 28 162 285 323 267 248 229 211 199 188 182 181 187 189 191 183 170 171 167 166 159 165 173 169 173 185 179 123 34 331 334 327 309 147 129 249 239 244 257 245 215 204 210
142 70 54 49 70 333 249 169 277 247 231 243 222 201 194 183 178 178 179 173 177 170 160 162 165 168 163 167 177 177 177 169 150 148 182 317 333 334 333 108 152 245 253 254 250 240 225 223 218
111 99 37 358 8 257 242 183 250 252 230 221 212 199 192 177 174 178 177 173 175 169 166 166 166 174 171 171 183 189 190 178 179 184 190 201 270 287 281 264 250 253 259 259 253 255 257 229 220
181 149 163 195 219 267 293 229 252 256 263 229 204 182 173 170 176 183 182 176 177 173 167 167 170 175 171 177 188 191 186 184 196 196 190 199 225 246 252 240 250 260 270 275 243 241 264 247 239
152 182 170 137 145 260 274 279 300 324 355 218 182 167 178 184 180 180 177 174 171 167 171 171 169 166 170 185 180 178 181 184 194 199 194 210 240 252 256 254 255 268 280 282 261 244 268 266 268
144 148 110 125 151 230 274 262 249 249 247 233 194 197 199 179 168 163 173 176 167 164 162 151 161 172 174 174 171 163 182 184 179 170 191 208 232 250 260 277 274 289 303 321 17 292 281 232 260
119 113 116 122 151 162 227 262 229 214 212 208 206 197 187 178 176 176 181 165 152 146 150 151 160 165 159 159 162 150 164 178 179 189 217 217 212 207 223 257 273 268 275 288 306 282 275 263 276
172 167 150 153 202 174 181 261 282 208 205 189 196 194 186 166 166 163 159 147 144 149 157 165 165 168 171 163 153 164 167 175 189 211 235 218 208 210 209 233 266 271 268 251 233 263 282 269 269